Old Crow AWS Syst, Yukon Territory

11:16 AM PST on December 03, 2016 (GMT -0800)
Old Crow

Weather History for CZOC - February, 2014

Change the Weather History Date:

Sunday, February 9, 2014

  Actual Average Record
Temperature  
Mean Temperature -32 °F -  
Max Temperature -25 °F - - ()
Min Temperature -39 °F - - ()
Degree Days  
Heating Degree Days 97    
Moisture  
Dew Point -40 °F    
Average Humidity 65    
Maximum Humidity 73    
Minimum Humidity 46    
Precipitation  
Precipitation 0.00 in - - ()
Sea Level Pressure  
Sea Level Pressure 30.75 in    
Wind  
Wind Speed 1 mph ()    
Max Wind Speed 4 mph    
Max Gust Speed -    
T = Trace of Precipitation, MM = Missing Value Source: Averaged Metar Reports

Daily Weather History Graph

Daily Weather History Graph

Search for Another Location

Airport or City:

Trip Planner

Search our weather history database for the weather conditions in past years. The results will help you decide how hot, cold, wet, or windy it might be!

Date:

Astronomy

Feb. 09, 2014 Rise Set
Actual Time 9:57 AM PST 5:10 PM PST
Civil Twilight 8:54 AM PST 6:14 PM PST
Nautical Twilight 7:48 AM PST 7:19 PM PST
Astronomical Twilight 6:45 AM PST 8:23 PM PST
Moon 11:47 AM PST (2/9) 7:19 AM PST (2/9)
Length of Visible Light 9h 19m
Length of Day
7h 13m
Waxing Gibbous, 78% of the Moon is Illuminated
Feb 9
Waxing Gibbous
Feb 14
Full
Feb 22
Last Quarter
Mar 1
New
Mar 8
First Quarter

Hourly Weather History & Observations

Time (PST) Temp. Windchill Dew Point Humidity Pressure Visibility Wind Dir Wind Speed Gust Speed Precip Events Conditions
12:00 AM -25.6 °F - -31.7 °F 73% 30.81 in - West 2.3 mph - N/A   Unknown
1:00 AM -29.0 °F - -35.7 °F 70% 30.80 in - Calm Calm - N/A   Unknown
2:00 AM -31.4 °F - -38.6 °F 68% 30.79 in - ENE 1.2 mph - N/A   Unknown
3:00 AM -32.8 °F - -40.0 °F 68% 30.79 in - NE 2.3 mph - N/A   Unknown
4:00 AM -33 °F - -41 °F 48% 30.77 in - East 1.2 mph - -  
4:00 AM -33.3 °F - -40.7 °F 67% 30.77 in - ESE 2.3 mph - N/A   Unknown
5:00 AM -34.4 °F - -41.8 °F 67% 30.76 in - Calm Calm - N/A   Unknown
6:00 AM -34.4 °F - -41.8 °F 67% 30.75 in - East 2.3 mph - N/A   Unknown
7:00 AM -33.7 °F - -41.1 °F 67% 30.72 in - West 1.2 mph - N/A   Unknown
8:00 AM -35.7 °F - -43.4 °F 66% 30.71 in - NNE 1.2 mph - N/A   Unknown
9:00 AM -36.9 °F - -44.9 °F 65% 30.70 in - ESE 1.2 mph - N/A   Unknown
10:00 AM -39 °F - -47 °F 46% 30.70 in - East 2.3 mph - -  
10:00 AM -38.6 °F - -46.7 °F 64% 30.70 in - East 1.2 mph - N/A   Unknown
11:00 AM -36.8 °F - -44.7 °F 65% 30.71 in - Calm Calm - N/A   Unknown
12:00 PM -35.1 °F - -42.9 °F 66% 30.70 in - ENE 1.2 mph - N/A   Unknown
1:00 PM -32.8 °F - -40.2 °F 67% 30.71 in - East 1.2 mph - N/A   Unknown
2:00 PM -30.6 °F - -37.8 °F 68% 30.70 in - Calm Calm - N/A   Unknown
3:00 PM -28.8 °F - -36.0 °F 68% 30.71 in - West 1.2 mph - N/A   Unknown
4:00 PM -28 °F - -36 °F 49% 30.72 in - WSW 3.5 mph - -  
4:00 PM -28.5 °F -40.4 °F -35.7 °F 68% 30.72 in - West 3.5 mph - N/A   Unknown
5:00 PM -30.3 °F - -37.5 °F 68% 30.73 in - WSW 2.3 mph - N/A   Unknown
6:00 PM -32.1 °F - -39.1 °F 69% 30.74 in - West 2.3 mph - N/A   Unknown
7:00 PM -35.5 °F - -43.2 °F 66% 30.75 in - ENE 2.3 mph - N/A   Unknown
8:00 PM -32.8 °F -45.3 °F -40.0 °F 68% 30.76 in - West 3.5 mph - N/A   Unknown
9:00 PM -33.0 °F - -40.4 °F 67% 30.78 in - South 2.3 mph - N/A   Unknown
10:00 PM -32 °F - -39 °F 49% 30.79 in - NE 1.2 mph - -  
10:00 PM -32.1 °F - -39.5 °F 67% 30.79 in - NE 2.3 mph - N/A   Unknown
11:00 PM -32.1 °F - -39.5 °F 67% 30.79 in - West 1.2 mph - N/A   Unknown